Location: Unspecified
(30.4690°N, 0.0000°E)
Time: 01:48:50
(UTC+00:00)

Explorer 7 - All Passes

Search period start: 04 April 2026 00:00
Search period end: 14 April 2026 00:00
Orbit: 429 x 539 km, 50.2° (Epoch: 29 March)

Date Brightness Start Highest point End Pass type
(mag) Time Alt. Az. Time Alt. Az. Time Alt. Az.
4 Apr - 03:20:15 10° NNW 03:23:19 25° NE 03:26:17 10° E visible
4 Apr - 04:58:35 10° WNW 05:01:33 25° SW 05:04:28 10° S visible
4 Apr - 18:36:49 10° SSE 18:39:13 15° SE 18:41:35 10° E daylight
4 Apr - 20:13:19 10° WSW 20:17:17 52° NW 20:21:10 10° NE visible
5 Apr - 02:53:15 10° NNW 02:56:15 23° NE 02:59:10 10° E visible
5 Apr - 04:31:27 10° WNW 04:34:33 28° SW 04:37:33 10° S visible
5 Apr - 18:10:01 10° SSE 18:12:09 14° SE 18:14:18 10° E daylight
5 Apr - 19:46:11 10° WSW 19:50:12 57° NW 19:54:08 10° NE visible
5 Apr - 21:28:40 10° NW 21:29:12 10° NNW 21:29:44 10° NNW visible
6 Apr - 02:26:14 10° NNW 02:29:10 22° NE 02:32:01 10° E night (unlit)
6 Apr - 04:04:18 10° WNW 04:07:30 31° SW 04:10:37 10° SSE visible
6 Apr - 17:43:16 10° SSE 17:45:05 13° SE 17:46:54 10° E daylight
6 Apr - 19:19:03 10° SW 19:23:05 62° NW 19:27:03 10° NE visible
6 Apr - 21:00:58 10° NW 21:02:03 11° NNW 21:03:08 10° N visible
7 Apr - 01:59:10 10° NNW 02:02:02 21° NE 02:04:50 10° E night (unlit)
7 Apr - 03:37:07 10° WNW 03:40:25 34° SW 03:43:38 10° SSE night (unlit)
7 Apr - 17:16:33 10° SE 17:17:59 12° SE 17:19:24 10° ESE daylight
7 Apr - 18:51:53 10° SW 18:55:56 68° NW 18:59:57 10° NE visible
7 Apr - 20:33:25 10° NW 20:34:52 12° NNW 20:36:19 10° N visible
8 Apr - 01:32:05 10° NNW 01:34:53 20° NNE 01:37:36 10° E night (unlit)
8 Apr - 03:09:55 10° WNW 03:13:19 38° SW 03:16:36 10° SSE night (unlit)
8 Apr - 16:50:06 10° SE 16:50:50 10° SE 16:51:36 10° ESE daylight
8 Apr - 18:24:41 10° SW 18:28:46 75° NW 18:32:48 10° NE daylight
8 Apr - 20:05:55 10° NW 20:07:39 12° NNW 20:09:23 10° N visible
9 Apr - 01:05:00 10° NNW 01:07:42 19° NNE 01:10:20 10° E night (unlit)
9 Apr - 02:42:41 10° WNW 02:46:11 43° SW 02:49:32 10° SSE night (unlit)
9 Apr - 17:57:28 10° SW 18:01:34 82° NW 18:05:37 10° NE daylight
9 Apr - 19:38:26 10° WNW 19:40:25 13° NNW 19:42:23 10° N visible
10 Apr - 00:37:52 10° NNW 00:40:28 18° NNE 00:43:01 10° ENE night (unlit)
10 Apr - 02:15:27 10° WNW 02:19:00 48° SW 02:22:26 10° SSE night (unlit)
10 Apr - 17:30:15 10° SW 17:34:20 89° WNW 17:38:24 10° NE daylight
10 Apr - 19:10:58 10° WNW 19:13:09 14° NNW 19:15:19 10° N visible
11 Apr - 00:10:42 10° N 00:13:13 17° NNE 00:15:40 10° ENE night (unlit)
11 Apr - 01:48:10 10° NW 01:51:49 54° SW 01:55:18 10° SSE night (unlit)
11 Apr - 17:03:00 10° SW 17:07:04 83° SE 17:11:09 10° NE daylight
11 Apr - 18:43:29 10° WNW 18:45:51 15° NNW 18:48:13 10° N visible
11 Apr - 23:43:32 10° N 23:45:56 16° NNE 23:48:17 10° ENE night (unlit)
12 Apr - 01:20:53 10° NW 01:24:34 60° SW 01:28:07 10° SSE night (unlit)
12 Apr - 16:35:44 10° SW 16:39:47 76° SE 16:43:52 10° NE daylight
12 Apr - 18:16:00 10° WNW 18:18:31 16° NNW 18:21:03 10° N daylight
12 Apr - 23:16:20 10° N 23:18:37 15° NNE 23:20:51 10° ENE night (unlit)
13 Apr - 00:53:33 10° NW 00:57:18 68° SW 01:00:54 10° SE night (unlit)
13 Apr - 16:08:27 10° SW 16:12:29 69° SE 16:16:33 10° NE daylight
13 Apr - 17:48:29 10° WNW 17:51:10 17° NNW 17:53:51 10° N daylight
13 Apr - 22:49:06 10° N 22:51:16 14° NNE 22:53:22 10° ENE night (unlit)
